QPF
0.00 0.00 0.00 0.01 0.01 0.03 0.02 0.02 0.02 0.02 0.01 0.01 0.02 0.03 0.02 0.02 0.04 0.02 0.01 0.01 0.01 0.02 0.02 0.02 0.03 0.03 0.04 0.04 0.04 0.04 0.03 0.05 0.05 0.05 0.05 0.05 0.05 0.04 0.03 0.03 0.03 0.03 0.03 0.05
0.00 0.02 0.01 0.01 0.02 0.02 0.03 0.03 0.02 0.02 0.02 0.01 0.02 0.03 0.02 0.01 0.01 0.00 0.00 0.00 0.01 0.01 0.03 0.03 0.03 0.04 0.04 0.05 0.04 0.04 0.04 0.05 0.05 0.05 0.05 0.05 0.05 0.05 0.04 0.04 0.04 0.04 0.03 0.04
0.02 0.03 0.01 0.01 0.01 0.01 0.01 0.01 0.01 0.01 0.03 0.04 0.03 0.03 0.02 0.01 0.01 0.01 0.01 0.01 0.01 0.01 0.02 0.02 0.02 0.02 0.03 0.04 0.03 0.03 0.04 0.04 0.04 0.04 0.04 0.04 0.05 0.05 0.05 0.05 0.05 0.05 0.04 0.03
0.02 0.01 0.01 0.01 0.00 0.01 0.00 0.01 0.00 0.02 0.03 0.04 0.02 0.05 0.03 0.02 0.02 0.02 0.01 0.02 0.02 0.02 0.02 0.02 0.01 0.01 0.01 0.02 0.02 0.02 0.03 0.04 0.04 0.03 0.03 0.04 0.05 0.05 0.05 0.05 0.05 0.06 0.05 0.04
0.01 0.01 0.01 0.01 0.00 0.01 0.00 0.00 0.00 0.01 0.03 0.04 0.03 0.08 0.11 0.05 0.03 0.02 0.01 0.01 0.02 0.02 0.01 0.01 0.01 0.02 0.01 0.02 0.03 0.03 0.04 0.05 0.04 0.04 0.04 0.05 0.05 0.05 0.05 0.05 0.05 0.05 0.07 0.07
0.01 0.00 0.00 0.00 0.00 0.00 0.00 0.00 0.00 0.01 0.04 0.06 0.05 0.09 0.12 0.07 0.04 0.02 0.01 0.01 0.01 0.03 0.03 0.03 0.04 0.03 0.02 0.03 0.04 0.05 0.06 0.06 0.04 0.04 0.04 0.04 0.05 0.05 0.05 0.06 0.08 0.07 0.07 0.06
0.00 0.00 0.00 0.00 0.00 0.00 0.00 0.01 0.04 0.05 0.05 0.07 0.05 0.07 0.08 0.03 0.01 0.00 0.01 0.02 0.01 0.03 0.03 0.03 0.04 0.03 0.03 0.03 0.03 0.05 0.06 0.06 0.04 0.03 0.04 0.04 0.05 0.06 0.06 0.06 0.06 0.06 0.06 0.06
0.00 0.00 0.00 0.00 0.00 0.00 0.00 0.02 0.05 0.06 0.05 0.05 0.03 0.05 0.04 0.01 0.00 0.00 0.00 0.01 0.02 0.02 0.02 0.02 0.03 0.03 0.03 0.02 0.02 0.03 0.04 0.04 0.04 0.03 0.04 0.05 0.05 0.05 0.05 0.05 0.05 0.05 0.06 0.05
0.01 0.01 0.00 0.00 0.00 0.00 0.01 0.03 0.03 0.04 0.05 0.06 0.04 0.04 0.03 0.01 0.00 0.00 0.00 0.00 0.01 0.01 0.01 0.01 0.03 0.03 0.02 0.02 0.02 0.03 0.04 0.03 0.03 0.03 0.04 0.04 0.04 0.05 0.05 0.05 0.04 0.05 0.05 0.06
0.01 0.01 0.00 0.00 0.00 0.00 0.01 0.02 0.03 0.05 0.06 0.06 0.06 0.05 0.03 0.02 0.01 0.01 0.01 0.01 0.02 0.02 0.01 0.01 0.02 0.02 0.03 0.03 0.04 0.04 0.04 0.04 0.03 0.04 0.04 0.04 0.04 0.04 0.04 0.04 0.04 0.05 0.05 0.06
0.01 0.01 0.01 0.00 0.00 0.00 0.01 0.02 0.04 0.05 0.05 0.05 0.06 0.06 0.03 0.02 0.01 0.01 0.02 0.02 0.03 0.03 0.02 0.01 0.02 0.02 0.03 0.03 0.04 0.06 0.05 0.05 0.04 0.04 0.05 0.04 0.04 0.03 0.04 0.04 0.05 0.06 0.07 0.07
0.01 0.02 0.01 0.01 0.00 0.00 0.00 0.01 0.02 0.03 0.03 0.02 0.04 0.04 0.01 0.01 0.01 0.02 0.02 0.03 0.03 0.02 0.01 0.01 0.01 0.02 0.02 0.02 0.04 0.05 0.06 0.05 0.05 0.05 0.04 0.04 0.04 0.05 0.05 0.06 0.06 0.06 0.07 0.08
0.01 0.02 0.01 0.01 0.01 0.01 0.01 0.01 0.01 0.03 0.03 0.02 0.03 0.03 0.02 0.01 0.01 0.01 0.02 0.02 0.03 0.02 0.01 0.01 0.01 0.02 0.02 0.01 0.02 0.03 0.03 0.03 0.04 0.04 0.04 0.04 0.04 0.05 0.05 0.06 0.05 0.04 0.05 0.07
0.00 0.01 0.01 0.02 0.02 0.01 0.01 0.01 0.01 0.02 0.02 0.02 0.02 0.02 0.01 0.01 0.01 0.01 0.01 0.01 0.02 0.02 0.01 0.01 0.02 0.03 0.02 0.01 0.02 0.01 0.01 0.01 0.02 0.02 0.03 0.03 0.03 0.03 0.04 0.05 0.05 0.05 0.05 0.07
0.01 0.01 0.01 0.01 0.01 0.00 0.00 0.00 0.00 0.01 0.02 0.02 0.02 0.01 0.01 0.01 0.02 0.01 0.00 0.01 0.02 0.02 0.02 0.02 0.02 0.02 0.03 0.02 0.02 0.02 0.01 0.01 0.01 0.01 0.02 0.03 0.03 0.03 0.03 0.03 0.04 0.05 0.05 0.05
0.01 0.01 0.01 0.01 0.01 0.00 0.00 0.01 0.01 0.01 0.01 0.01 0.01 0.01 0.01 0.01 0.01 0.01 0.01 0.01 0.02 0.02 0.01 0.02 0.02 0.02 0.02 0.02 0.01 0.01 0.01 0.01 0.01 0.01 0.01 0.01 0.01 0.02 0.02 0.02 0.03 0.04 0.05 0.06
0.01 0.01 0.01 0.01 0.01 0.01 0.01 0.01 0.02 0.02 0.01 0.01 0.01 0.01 0.01 0.01 0.01 0.02 0.02 0.01 0.02 0.01 0.02 0.02 0.03 0.03 0.03 0.02 0.02 0.01 0.01 0.01 0.01 0.01 0.01 0.01 0.01 0.01 0.01 0.02 0.03 0.02 0.04 0.05
0.01 0.01 0.02 0.01 0.01 0.02 0.01 0.00 0.01 0.01 0.01 0.01 0.00 0.00 0.00 0.01 0.01 0.01 0.01 0.02 0.02 0.02 0.01 0.02 0.03 0.02 0.02 0.02 0.02 0.01 0.01 0.01 0.00 0.00 0.01 0.00 0.00 0.01 0.02 0.04 0.04 0.03 0.03 0.02
0.00 0.01 0.02 0.02 0.02 0.01 0.01 0.00 0.00 0.00 0.01 0.01 0.00 0.00 0.00 0.00 0.01 0.01 0.01 0.02 0.02 0.01 0.01 0.01 0.02 0.02 0.02 0.01 0.01 0.02 0.01 0.00 0.00 0.00 0.01 0.01 0.02 0.03 0.03 0.03 0.03 0.02 0.02 0.02
0.00 0.01 0.02 0.02 0.02 0.02 0.01 0.00 0.00 0.01 0.02 0.01 0.01 0.01 0.00 0.01 0.02 0.02 0.01 0.01 0.02 0.01 0.01 0.01 0.02 0.02 0.01 0.01 0.01 0.01 0.01 0.01 0.01 0.01 0.02 0.02 0.02 0.02 0.03 0.02 0.01 0.01 0.01 0.02
0.01 0.01 0.01 0.02 0.02 0.02 0.01 0.00 0.01 0.03 0.04 0.01 0.01 0.02 0.01 0.02 0.02 0.01 0.01 0.01 0.01 0.01 0.01 0.01 0.01 0.01 0.01 0.01 0.02 0.01 0.01 0.02 0.02 0.02 0.02 0.02 0.01 0.01 0.01 0.01 0.01 0.01 0.01 0.01
0.04 0.03 0.02 0.02 0.03 0.03 0.01 0.00 0.01 0.02 0.01 0.01 0.01 0.02 0.02 0.01 0.00 0.00 0.01 0.01 0.01 0.01 0.00 0.00 0.00 0.01 0.01 0.01 0.02 0.03 0.03 0.02 0.02 0.02 0.02 0.02 0.01 0.01 0.00 0.00 0.01 0.01 0.01 0.01
0.02 0.03 0.03 0.03 0.04 0.03 0.02 0.01 0.01 0.00 0.01 0.01 0.01 0.01 0.01 0.01 0.02 0.01 0.01 0.01 0.01 0.01 0.00 0.00 0.01 0.02 0.02 0.02 0.02 0.03 0.03 0.02 0.03 0.03 0.02 0.03 0.02 0.01 0.01 0.00 0.00 0.01 0.01 0.00
0.02 0.02 0.02 0.03 0.02 0.03 0.03 0.02 0.01 0.01 0.00 0.01 0.01 0.01 0.01 0.01 0.02 0.02 0.01 0.02 0.01 0.01 0.01 0.01 0.01 0.02 0.03 0.02 0.01 0.01 0.02 0.02 0.04 0.03 0.03 0.03 0.03 0.02 0.01 0.01 0.00 0.00 0.00 0.00
0.01 0.02 0.03 0.04 0.04 0.05 0.05 0.03 0.02 0.01 0.01 0.01 0.02 0.02 0.02 0.01 0.02 0.02 0.02 0.02 0.02 0.01 0.01 0.01 0.01 0.02 0.02 0.02 0.01 0.01 0.01 0.02 0.03 0.02 0.02 0.02 0.02 0.02 0.01 0.01 0.01 0.00 0.00 0.00
0.01 0.02 0.03 0.05 0.04 0.05 0.04 0.03 0.02 0.01 0.01 0.01 0.02 0.04 0.04 0.02 0.02 0.02 0.02 0.03 0.02 0.01 0.01 0.01 0.01 0.01 0.01 0.01 0.01 0.01 0.01 0.02 0.03 0.03 0.03 0.02 0.02 0.02 0.01 0.01 0.01 0.01 0.00 0.00
MSLP
1006.38 1007.27 1007.92 1008.30 1008.43 1008.31 1007.98 1007.46 1006.76 1005.92 1004.97 1003.95 1002.93 1001.98 1001.19 1000.65 1000.40 1000.47 1000.84 1001.48 1002.30 1003.20 1004.11 1004.93 1005.64 1006.20 1006.64 1006.99 1007.28 1007.54 1007.82 1008.09 1008.36 1008.60 1008.78 1008.89 1008.92 1008.87 1008.76 1008.60 1008.44 1008.28 1008.13 1007.99
1006.84 1007.49 1007.87 1007.99 1007.90 1007.64 1007.25 1006.76 1006.18 1005.50 1004.74 1003.90 1003.03 1002.17 1001.40 1000.82 1000.48 1000.44 1000.70 1001.24 1001.99 1002.86 1003.77 1004.63 1005.39 1006.00 1006.49 1006.86 1007.17 1007.44 1007.71 1007.98 1008.24 1008.48 1008.68 1008.80 1008.83 1008.78 1008.66 1008.50 1008.32 1008.15 1008.00 1007.88
1007.11 1007.48 1007.57 1007.44 1007.17 1006.81 1006.42 1006.03 1005.63 1005.18 1004.66 1004.05 1003.33 1002.57 1001.81 1001.15 1000.69 1000.48 1000.57 1000.95 1001.59 1002.40 1003.30 1004.20 1005.02 1005.71 1006.28 1006.72 1007.08 1007.38 1007.66 1007.93 1008.19 1008.42 1008.60 1008.72 1008.75 1008.70 1008.57 1008.41 1008.22 1008.05 1007.91 1007.81
1007.17 1007.24 1007.06 1006.70 1006.28 1005.88 1005.57 1005.35 1005.19 1005.02 1004.78 1004.40 1003.86 1003.17 1002.40 1001.64 1001.00 1000.58 1000.45 1000.63 1001.12 1001.83 1002.71 1003.63 1004.53 1005.33 1006.01 1006.56 1007.00 1007.36 1007.67 1007.95 1008.20 1008.43 1008.60 1008.70 1008.73 1008.67 1008.55 1008.38 1008.20 1008.03 1007.90 1007.80
1007.03 1006.82 1006.38 1005.85 1005.34 1004.96 1004.77 1004.76 1004.87 1005.01 1005.05 1004.92 1004.54 1003.93 1003.13 1002.24 1001.41 1000.74 1000.36 1000.31 1000.60 1001.20 1002.02 1002.97 1003.94 1004.86 1005.66 1006.34 1006.89 1007.33 1007.70 1008.00 1008.27 1008.49 1008.65 1008.75 1008.77 1008.71 1008.59 1008.43 1008.25 1008.09 1007.95 1007.85
1006.76 1006.29 1005.64 1004.98 1004.43 1004.11 1004.07 1004.28 1004.67 1005.10 1005.41 1005.50 1005.28 1004.72 1003.89 1002.88 1001.84 1000.94 1000.29 1000.00 1000.09 1000.54 1001.29 1002.24 1003.28 1004.30 1005.23 1006.04 1006.71 1007.26 1007.69 1008.04 1008.33 1008.55 1008.72 1008.82 1008.84 1008.80 1008.69 1008.53 1008.36 1008.19 1008.04 1007.92
1006.41 1005.72 1004.92 1004.17 1003.61 1003.37 1003.47 1003.89 1004.51 1005.18 1005.73 1006.01 1005.92 1005.42 1004.56 1003.45 1002.25 1001.13 1000.26 999.74 999.63 999.93 1000.59 1001.51 1002.58 1003.68 1004.72 1005.65 1006.44 1007.08 1007.59 1008.00 1008.32 1008.57 1008.75 1008.86 1008.90 1008.87 1008.78 1008.64 1008.47 1008.29 1008.12 1007.97
1006.00 1005.16 1004.26 1003.46 1002.91 1002.73 1002.94 1003.50 1004.30 1005.15 1005.87 1006.29 1006.32 1005.89 1005.04 1003.88 1002.58 1001.32 1000.28 999.57 999.29 999.45 1000.01 1000.87 1001.93 1003.06 1004.17 1005.18 1006.06 1006.78 1007.36 1007.83 1008.19 1008.47 1008.68 1008.82 1008.89 1008.89 1008.82 1008.70 1008.54 1008.35 1008.15 1007.97
1005.56 1004.63 1003.67 1002.85 1002.31 1002.17 1002.43 1003.07 1003.95 1004.89 1005.71 1006.25 1006.37 1006.03 1005.25 1004.13 1002.82 1001.52 1000.38 999.57 999.16 999.19 999.64 1000.42 1001.42 1002.53 1003.64 1004.69 1005.61 1006.38 1007.01 1007.52 1007.92 1008.24 1008.48 1008.66 1008.77 1008.81 1008.77 1008.68 1008.52 1008.33 1008.12 1007.90
1005.06 1004.11 1003.14 1002.32 1001.79 1001.64 1001.90 1002.53 1003.40 1004.36 1005.23 1005.83 1006.06 1005.84 1005.20 1004.19 1002.99 1001.75 1000.64 999.80 999.32 999.25 999.58 1000.25 1001.15 1002.18 1003.24 1004.25 1005.17 1005.95 1006.60 1007.12 1007.55 1007.90 1008.18 1008.40 1008.55 1008.62 1008.63 1008.56 1008.43 1008.25 1008.02 1007.78
1004.48 1003.56 1002.64 1001.85 1001.32 1001.14 1001.34 1001.89 1002.68 1003.59 1004.44 1005.10 1005.43 1005.37 1004.93 1004.14 1003.15 1002.08 1001.10 1000.32 999.84 999.71 999.93 1000.46 1001.22 1002.12 1003.06 1003.98 1004.83 1005.57 1006.20 1006.72 1007.16 1007.52 1007.83 1008.07 1008.26 1008.38 1008.42 1008.39 1008.29 1008.12 1007.90 1007.65
1003.80 1002.98 1002.14 1001.41 1000.89 1000.67 1000.78 1001.20 1001.88 1002.68 1003.49 1004.17 1004.62 1004.76 1004.57 1004.08 1003.38 1002.58 1001.80 1001.15 1000.72 1000.56 1000.69 1001.08 1001.67 1002.40 1003.18 1003.96 1004.70 1005.35 1005.92 1006.41 1006.83 1007.18 1007.49 1007.76 1007.97 1008.12 1008.20 1008.21 1008.14 1008.00 1007.80 1007.55
1003.03 1002.37 1001.67 1001.03 1000.54 1000.28 1000.29 1000.58 1001.11 1001.80 1002.54 1003.25 1003.81 1004.15 1004.24 1004.09 1003.73 1003.25 1002.73 1002.26 1001.93 1001.77 1001.82 1002.07 1002.49 1003.02 1003.62 1004.23 1004.82 1005.36 1005.84 1006.26 1006.64 1006.97 1007.26 1007.52 1007.73 1007.90 1008.01 1008.05 1008.01 1007.89 1007.72 1007.50
1002.24 1001.77 1001.24 1000.73 1000.30 1000.02 999.96 1000.12 1000.51 1001.08 1001.77 1002.48 1003.15 1003.69 1004.07 1004.24 1004.23 1004.07 1003.83 1003.57 1003.35 1003.22 1003.21 1003.34 1003.58 1003.93 1004.34 1004.77 1005.20 1005.61 1005.99 1006.32 1006.62 1006.90 1007.15 1007.38 1007.58 1007.74 1007.86 1007.91 1007.90 1007.81 1007.66 1007.46
1001.50 1001.25 1000.92 1000.56 1000.23 999.98 999.87 999.94 1000.21 1000.68 1001.29 1002.01 1002.76 1003.47 1004.09 1004.55 1004.85 1005.00 1005.02 1004.95 1004.84 1004.74 1004.69 1004.72 1004.82 1005.00 1005.23 1005.50 1005.78 1006.06 1006.32 1006.55 1006.77 1006.97 1007.15 1007.33 1007.49 1007.62 1007.72 1007.77 1007.77 1007.70 1007.57 1007.39
1000.89 1000.86 1000.75 1000.58 1000.37 1000.18 1000.06 1000.08 1000.27 1000.64 1001.20 1001.90 1002.70 1003.53 1004.31 1005.00 1005.54 1005.92 1006.14 1006.23 1006.22 1006.16 1006.08 1006.03 1006.03 1006.08 1006.17 1006.30 1006.46 1006.61 1006.76 1006.89 1007.00 1007.11 1007.20 1007.30 1007.39 1007.48 1007.55 1007.58 1007.58 1007.52 1007.40 1007.23
1000.49 1000.68 1000.78 1000.79 1000.73 1000.62 1000.54 1000.54 1000.68 1000.98 1001.48 1002.14 1002.94 1003.82 1004.70 1005.51 1006.20 1006.73 1007.09 1007.29 1007.35 1007.32 1007.23 1007.13 1007.06 1007.01 1007.01 1007.04 1007.09 1007.14 1007.19 1007.21 1007.22 1007.22 1007.22 1007.22 1007.23 1007.24 1007.26 1007.27 1007.25 1007.20 1007.09 1006.94
1000.35 1000.72 1001.01 1001.20 1001.28 1001.29 1001.26 1001.27 1001.38 1001.64 1002.07 1002.68 1003.43 1004.28 1005.17 1006.01 1006.76 1007.35 1007.77 1008.02 1008.12 1008.11 1008.02 1007.90 1007.79 1007.70 1007.63 1007.60 1007.57 1007.54 1007.49 1007.42 1007.32 1007.21 1007.10 1007.00 1006.91 1006.86 1006.82 1006.80 1006.76 1006.71 1006.62 1006.48
1000.48 1001.00 1001.44 1001.77 1001.99 1002.10 1002.15 1002.19 1002.29 1002.51 1002.87 1003.40 1004.07 1004.85 1005.66 1006.46 1007.17 1007.74 1008.16 1008.41 1008.52 1008.51 1008.42 1008.30 1008.18 1008.07 1007.98 1007.90 1007.83 1007.73 1007.60 1007.43 1007.24 1007.02 1006.80 1006.59 1006.42 1006.30 1006.21 1006.15 1006.11 1006.06 1005.99 1005.88
1000.88 1001.48 1002.03 1002.47 1002.80 1003.00 1003.12 1003.20 1003.30 1003.49 1003.79 1004.23 1004.79 1005.45 1006.15 1006.83 1007.45 1007.94 1008.30 1008.52 1008.60 1008.59 1008.51 1008.40 1008.28 1008.17 1008.07 1007.97 1007.85 1007.70 1007.49 1007.24 1006.95 1006.64 1006.32 1006.03 1005.78 1005.59 1005.46 1005.39 1005.35 1005.32 1005.28 1005.21
1001.49 1002.13 1002.74 1003.26 1003.65 1003.93 1004.11 1004.23 1004.34 1004.50 1004.75 1005.10 1005.54 1006.06 1006.61 1007.16 1007.64 1008.02 1008.30 1008.45 1008.50 1008.47 1008.39 1008.28 1008.17 1008.07 1007.96 1007.84 1007.68 1007.48 1007.21 1006.88 1006.51 1006.11 1005.72 1005.35 1005.05 1004.82 1004.67 1004.59 1004.56 1004.56 1004.55 1004.53
1002.28 1002.94 1003.56 1004.10 1004.54 1004.86 1005.08 1005.23 1005.36 1005.50 1005.70 1005.96 1006.30 1006.68 1007.09 1007.48 1007.82 1008.08 1008.25 1008.33 1008.33 1008.28 1008.19 1008.08 1007.97 1007.87 1007.74 1007.60 1007.40 1007.15 1006.82 1006.43 1005.99 1005.52 1005.07 1004.66 1004.32 1004.06 1003.91 1003.83 1003.82 1003.85 1003.89 1003.92
1003.22 1003.85 1004.46 1005.01 1005.45 1005.79 1006.03 1006.20 1006.34 1006.47 1006.62 1006.82 1007.05 1007.32 1007.59 1007.84 1008.04 1008.18 1008.26 1008.26 1008.21 1008.12 1008.01 1007.90 1007.78 1007.66 1007.51 1007.33 1007.09 1006.78 1006.40 1005.96 1005.46 1004.96 1004.47 1004.03 1003.68 1003.42 1003.26 1003.20 1003.21 1003.26 1003.33 1003.40
1004.27 1004.88 1005.45 1005.96 1006.39 1006.72 1006.97 1007.14 1007.27 1007.39 1007.51 1007.65 1007.80 1007.96 1008.12 1008.25 1008.34 1008.37 1008.36 1008.29 1008.19 1008.07 1007.94 1007.80 1007.65 1007.50 1007.32 1007.09 1006.80 1006.45 1006.02 1005.53 1005.01 1004.48 1003.98 1003.54 1003.18 1002.92 1002.77 1002.72 1002.73 1002.80 1002.88 1002.97
1005.42 1005.98 1006.50 1006.97 1007.35 1007.65 1007.87 1008.04 1008.15 1008.25 1008.34 1008.42 1008.51 1008.59 1008.65 1008.69 1008.68 1008.63 1008.55 1008.42 1008.27 1008.11 1007.94 1007.77 1007.59 1007.40 1007.17 1006.89 1006.56 1006.15 1005.69 1005.18 1004.64 1004.11 1003.62 1003.18 1002.84 1002.59 1002.44 1002.38 1002.39 1002.44 1002.51 1002.58
1006.62 1007.13 1007.60 1007.99 1008.31 1008.56 1008.74 1008.86 1008.95 1009.01 1009.06 1009.10 1009.13 1009.14 1009.13 1009.09 1009.01 1008.90 1008.75 1008.58 1008.39 1008.19 1007.98 1007.77 1007.55 1007.31 1007.03 1006.70 1006.32 1005.89 1005.40 1004.88 1004.35 1003.83 1003.36 1002.95 1002.61 1002.37 1002.22 1002.13 1002.11 1002.12 1002.14 1002.18
Thickness
5791 5780 5778 5788 5796 5796 5795 5790 5788 5797 5815 5808 5800 5802 5805 5804 5800 5795 5790 5787 5782 5778 5777 5773 5768 5763 5756 5751 5746 5742 5738 5735 5732 5728 5724 5721 5718 5717 5714 5712 5709 5706 5702 5700
5780 5776 5794 5804 5804 5799 5794 5785 5786 5794 5812 5808 5800 5799 5806 5804 5799 5798 5792 5785 5781 5776 5771 5766 5762 5757 5752 5746 5742 5739 5734 5731 5728 5724 5721 5718 5716 5713 5710 5707 5704 5700 5697 5695
5779 5792 5807 5801 5796 5792 5790 5786 5787 5788 5801 5808 5795 5786 5793 5799 5801 5797 5793 5787 5783 5775 5767 5761 5757 5753 5749 5743 5740 5737 5731 5728 5724 5721 5718 5714 5710 5707 5703 5700 5698 5695 5693 5690
5790 5804 5803 5798 5796 5796 5786 5806 5802 5793 5787 5785 5790 5766 5782 5787 5785 5785 5785 5782 5777 5773 5767 5760 5754 5750 5746 5742 5738 5733 5728 5724 5720 5717 5712 5707 5702 5698 5696 5694 5692 5690 5688 5685
5787 5800 5799 5794 5802 5806 5802 5813 5807 5800 5788 5782 5788 5772 5771 5781 5773 5776 5779 5779 5775 5772 5767 5760 5755 5749 5745 5741 5736 5731 5725 5720 5716 5712 5708 5703 5699 5695 5693 5690 5687 5684 5683 5680
5796 5810 5809 5807 5815 5816 5815 5809 5805 5800 5787 5762 5774 5764 5758 5773 5774 5775 5779 5779 5775 5771 5766 5760 5755 5749 5743 5739 5733 5728 5721 5716 5713 5709 5705 5700 5695 5691 5688 5685 5682 5679 5678 5676
5787 5801 5814 5820 5805 5809 5806 5785 5764 5760 5755 5755 5779 5765 5760 5782 5787 5784 5780 5777 5773 5769 5764 5756 5750 5745 5739 5735 5729 5724 5718 5712 5709 5705 5701 5697 5692 5689 5685 5681 5678 5676 5673 5671
5774 5780 5805 5814 5806 5796 5794 5785 5755 5739 5745 5760 5774 5760 5762 5783 5789 5788 5783 5775 5769 5765 5761 5755 5750 5744 5737 5732 5726 5720 5714 5709 5706 5702 5698 5694 5690 5686 5683 5679 5676 5673 5670 5668
5775 5779 5811 5818 5817 5806 5788 5782 5787 5765 5759 5753 5762 5764 5767 5778 5778 5778 5776 5771 5764 5763 5759 5753 5748 5742 5736 5729 5723 5717 5711 5706 5702 5699 5695 5691 5687 5684 5680 5677 5674 5671 5669 5667
5785 5774 5797 5812 5814 5812 5802 5793 5777 5757 5741 5737 5751 5751 5748 5757 5764 5768 5769 5766 5762 5760 5756 5751 5745 5739 5733 5727 5721 5716 5710 5704 5700 5696 5692 5689 5685 5682 5678 5675 5671 5668 5666 5664
5789 5772 5783 5796 5792 5791 5793 5786 5781 5772 5765 5744 5734 5741 5764 5761 5764 5763 5765 5764 5759 5756 5753 5748 5742 5737 5731 5725 5719 5712 5707 5702 5697 5694 5690 5686 5683 5680 5676 5673 5669 5666 5664 5661
5784 5773 5765 5782 5804 5810 5798 5788 5779 5757 5755 5759 5746 5740 5774 5770 5769 5766 5762 5760 5757 5754 5751 5746 5740 5734 5727 5721 5716 5710 5705 5701 5697 5693 5689 5684 5680 5677 5673 5670 5667 5664 5662 5659
5773 5760 5748 5759 5774 5788 5785 5787 5785 5777 5766 5756 5743 5739 5768 5764 5762 5763 5758 5755 5752 5749 5745 5741 5735 5729 5724 5719 5713 5708 5704 5700 5696 5692 5687 5682 5678 5674 5671 5668 5666 5663 5660 5657
5772 5758 5748 5740 5752 5766 5768 5776 5781 5773 5759 5754 5754 5747 5755 5755 5755 5755 5753 5750 5748 5744 5740 5736 5730 5724 5720 5716 5711 5706 5702 5698 5695 5690 5685 5680 5676 5673 5670 5667 5665 5662 5659 5656
5765 5751 5755 5760 5769 5772 5771 5771 5775 5769 5766 5758 5758 5753 5753 5755 5755 5753 5750 5746 5742 5738 5735 5730 5724 5720 5716 5712 5708 5704 5700 5696 5693 5688 5683 5679 5675 5673 5669 5666 5663 5660 5657 5654
5756 5744 5746 5748 5762 5767 5765 5770 5770 5767 5767 5764 5760 5752 5757 5758 5756 5751 5747 5743 5737 5734 5731 5726 5721 5716 5712 5708 5705 5701 5698 5694 5691 5686 5682 5678 5675 5672 5669 5665 5662 5658 5655 5652
5745 5737 5730 5732 5751 5753 5745 5762 5764 5763 5765 5759 5747 5747 5752 5747 5744 5740 5738 5737 5732 5729 5727 5722 5717 5713 5709 5706 5702 5698 5695 5693 5689 5685 5681 5677 5674 5671 5668 5665 5661 5657 5654 5651
5734 5729 5727 5727 5729 5715 5748 5773 5769 5761 5757 5756 5750 5749 5747 5743 5741 5738 5736 5731 5727 5725 5720 5716 5714 5710 5707 5704 5700 5697 5694 5690 5687 5683 5680 5677 5673 5670 5666 5663 5659 5656 5653 5649
5739 5725 5717 5717 5714 5724 5745 5757 5757 5748 5741 5746 5743 5742 5741 5740 5735 5729 5730 5729 5725 5722 5718 5714 5711 5708 5705 5701 5697 5694 5690 5687 5684 5681 5678 5675 5672 5668 5664 5661 5658 5655 5652 5648
5736 5726 5711 5710 5702 5704 5726 5748 5757 5745 5726 5736 5735 5731 5731 5729 5714 5713 5722 5723 5721 5718 5715 5711 5708 5706 5702 5698 5695 5691 5687 5684 5681 5680 5677 5675 5671 5667 5663 5660 5657 5655 5651 5648
5711 5709 5703 5700 5698 5709 5727 5740 5742 5714 5708 5726 5727 5724 5721 5715 5711 5714 5717 5715 5714 5712 5710 5707 5703 5700 5698 5696 5692 5687 5684 5681 5681 5679 5677 5673 5670 5667 5663 5660 5656 5653 5651 5648
5701 5698 5698 5698 5689 5693 5719 5721 5710 5704 5715 5718 5717 5716 5713 5711 5710 5710 5709 5707 5707 5704 5703 5701 5697 5694 5693 5692 5688 5683 5680 5681 5679 5677 5674 5671 5668 5666 5663 5658 5655 5653 5650 5647
5699 5698 5697 5694 5690 5699 5708 5705 5706 5709 5706 5707 5707 5707 5706 5703 5702 5702 5701 5700 5700 5698 5696 5694 5692 5688 5687 5687 5684 5680 5679 5679 5676 5673 5670 5668 5665 5663 5661 5657 5654 5651 5648 5645
5694 5700 5694 5687 5690 5694 5697 5699 5700 5700 5700 5701 5700 5700 5698 5695 5694 5693 5692 5692 5691 5691 5690 5689 5686 5682 5681 5681 5681 5679 5677 5675 5672 5669 5667 5665 5662 5660 5658 5655 5653 5649 5645 5642
5678 5681 5679 5676 5680 5683 5684 5686 5687 5690 5693 5692 5692 5692 5690 5688 5686 5684 5683 5684 5684 5683 5684 5683 5680 5678 5677 5677 5677 5676 5674 5672 5668 5665 5664 5662 5661 5658 5655 5652 5649 5647 5643 5640
5669 5668 5663 5661 5667 5666 5668 5676 5679 5678 5678 5680 5680 5681 5682 5681 5678 5677 5676 5677 5677 5677 5677 5676 5675 5674 5674 5673 5672 5673 5671 5669 5665 5662 5660 5660 5659 5657 5654 5651 5647 5643 5640 5637